OpenBCM V1.13 (Linux)

Packet Radio Mailbox

DB0FHN

[JN59NK Nuernberg]

 Login: GUEST





  
CX2SA  > KEPS     25.03.05 09:03l 207 Lines 5444 Bytes #999 (0) @ AMSAT
BID : ORB05083.W
Read: GUEST
Subj: Orbital Elements  05083.WEATHER
Path: DB0FHN<DB0MRW<OK0PPL<DB0RES<DK0WUE<SP7MGD<7M3TJZ<EA5AKC<CX2SA
Sent: 050325/0657Z @:CX2SA.LAV.URY.SA #:27316 [Minas] FBB7.00e $:ORB05083.W
From: CX2SA@CX2SA.LAV.URY.SA
To  : KEPS@AMSAT


HR AMSAT ORBITAL ELEMENTS FOR WEATHER SATELLITES
FROM WA5QGD FORT WORTH,TX March 24, 2005
SEND SUBSCRIBE/UNSUBSCRIBE TO majordomo@amsat.org ONLY
BID: ORB05083.W
TO ALL RADIO AMATEURS BT

Satellite: NOAA-10
Catalog number: 16969
Epoch time:      05083.22119132
Element set:     664
Inclination:      098.7646 deg
RA of node:       088.7760 deg
Eccentricity:    0.0012780
Arg of perigee:   025.0230 deg
Mean anomaly:     335.1569 deg
Mean motion:   14.27246468 rev/day
Decay rate:        3.3e-07 rev/day^2
Epoch rev:           96297
Checksum:              317

Satellite: NOAA-11
Catalog number: 19531
Epoch time:      05083.21455845
Element set:     516
Inclination:      098.8455 deg
RA of node:       171.0130 deg
Eccentricity:    0.0011662
Arg of perigee:   185.2516 deg
Mean anomaly:     174.8538 deg
Mean motion:   14.14748519 rev/day
Decay rate:       1.10e-06 rev/day^2
Epoch rev:           85091
Checksum:              294

Satellite: NOAA-12
Catalog number: 21263
Epoch time:      05083.17572907
Element set:       9
Inclination:      098.6976 deg
RA of node:       074.2429 deg
Eccentricity:    0.0012295
Arg of perigee:   320.2796 deg
Mean anomaly:     039.7482 deg
Mean motion:   14.25454660 rev/day
Decay rate:       -1.4e-07 rev/day^2
Epoch rev:           72013
Checksum:              301

Satellite: MET-3/5
Catalog number: 21655
Epoch time:      05083.39539655
Element set:     773
Inclination:      082.5563 deg
RA of node:       218.5406 deg
Eccentricity:    0.0014281
Arg of perigee:   087.1395 deg
Mean anomaly:     273.1386 deg
Mean motion:   13.17001101 rev/day
Decay rate:        5.1e-07 rev/day^2
Epoch rev:           65415
Checksum:              292

Satellite: MET-2/21
Catalog number: 22782
Epoch time:      05082.79213483
Element set:    0161
Inclination:      082.5504 deg
RA of node:       328.7338 deg
Eccentricity:    0.0022411
Arg of perigee:   006.5724 deg
Mean anomaly:     353.5704 deg
Mean motion:   13.83583963 rev/day
Decay rate:       -3.0e-07 rev/day^2
Epoch rev:           58376
Checksum:              298

Satellite: OKEAN-4
Catalog number: 23317
Epoch time:      05083.75850831
Element set:     583
Inclination:      082.5428 deg
RA of node:       336.1123 deg
Eccentricity:    0.0023959
Arg of perigee:   056.6629 deg
Mean anomaly:     303.6879 deg
Mean motion:   14.82100303 rev/day
Decay rate:       4.56e-06 rev/day^2
Epoch rev:           56340
Checksum:              300

Satellite: NOAA-14
Catalog number: 23455
Epoch time:      05083.20831340
Element set:     534
Inclination:      099.1020 deg
RA of node:       130.1117 deg
Eccentricity:    0.0008832
Arg of perigee:   234.9954 deg
Mean anomaly:     125.0392 deg
Mean motion:   14.13547034 rev/day
Decay rate:       -8.8e-07 rev/day^2
Epoch rev:           52749
Checksum:              274

Satellite: SICH-1
Catalog number: 23657
Epoch time:      05083.72145005
Element set:     386
Inclination:      082.5268 deg
RA of node:       116.9888 deg
Eccentricity:    0.0025468
Arg of perigee:   043.3490 deg
Mean anomaly:     316.9727 deg
Mean motion:   14.81115659 rev/day
Decay rate:       3.37e-06 rev/day^2
Epoch rev:           51545
Checksum:              320

Satellite: NOAA-15
Catalog number: 25338
Epoch time:      05083.50142280
Element set:     978
Inclination:      098.5165 deg
RA of node:       094.4041 deg
Eccentricity:    0.0009662
Arg of perigee:   243.8090 deg
Mean anomaly:     116.2119 deg
Mean motion:   14.24496146 rev/day
Decay rate:        8.1e-07 rev/day^2
Epoch rev:           35669
Checksum:              305

Satellite: RESURS
Catalog number: 25394
Epoch time:      05083.89787002
Element set:      48
Inclination:      098.5458 deg
RA of node:       155.4823 deg
Eccentricity:    0.0002212
Arg of perigee:   069.9851 deg
Mean anomaly:     290.1562 deg
Mean motion:   14.24056402 rev/day
Decay rate:        2.4e-07 rev/day^2
Epoch rev:           34845
Checksum:              297

Satellite: FENGYUN1
Catalog number: 25730
Epoch time:      05083.72751560
Element set:     374
Inclination:      098.6066 deg
RA of node:       088.8869 deg
Eccentricity:    0.0014098
Arg of perigee:   345.8030 deg
Mean anomaly:     014.2742 deg
Mean motion:   14.11789234 rev/day
Decay rate:      -1.96e-06 rev/day^2
Epoch rev:           30259
Checksum:              313

Satellite: OKEAN-0
Catalog number: 25860
Epoch time:      05083.74324777
Element set:     389
Inclination:      097.7678 deg
RA of node:       113.3172 deg
Eccentricity:    0.0002120
Arg of perigee:   106.6773 deg
Mean anomaly:     253.4673 deg
Mean motion:   14.73223494 rev/day
Decay rate:       2.16e-06 rev/day^2
Epoch rev:           30557
Checksum:              303

Satellite: NOAA-16
Catalog number: 26536
Epoch time:      05083.48332437
Element set:     287
Inclination:      099.0038 deg
RA of node:       041.4796 deg
Eccentricity:    0.0009872
Arg of perigee:   308.6031 deg
Mean anomaly:     051.4237 deg
Mean motion:   14.12220845 rev/day
Decay rate:       -3.2e-07 rev/day^2
Epoch rev:           23210
Checksum:              279

Satellite: NOAA-17
Catalog number: 27453
Epoch time:      05082.12398724
Element set:     311
Inclination:      098.6672 deg
RA of node:       156.9211 deg
Eccentricity:    0.0010833
Arg of perigee:   307.1418 deg
Mean anomaly:     052.8750 deg
Mean motion:   14.23643181 rev/day
Decay rate:       -4.4e-07 rev/day^2
Epoch rev:           14259
Checksum:              288



Read previous mail | Read next mail


 14.07.2026 20:09:21lGo back Go up